Location: Acheville
(50.3840°N, 2.8827°E)
Time: 19:20:03
(UTC+00:00)

Feng Yun 1-1 Rocket - Pass Details

Date: 24 October 2021
Orbit: 830 x 933 km, 99.2° (Epoch: 07 December)

Event Time Altitude Azimuth Distance (km) Brightness Sun altitude
Rises 18:23:09 0° 166° (SSE) 3,428 7.2 -17.3°
Reaches altitude 10° 18:25:29 10° 168° (SSE) 2,510 6.5 -17.6°
Maximum altitude 18:31:05 79° 254° (WSW) 910 4.4 -18.5°
Drops below altitude 10° 18:36:53 10° 342° (NNW) 2,597 7.0 -19.5°
Sets 18:39:21 0° 344° (NNW) 3,556 7.7 -19.8°
